Regional Weather Roundup
Issued by NWS

Home | Current Version | Previous Version | Graphics & Text | Print | Product List | Glossary Off
Versions: 1 2 3 4 5 6 7 8 9 10 11 12 13 14 15 16 17 18 19 20 21 22 23 24 25 26 27 28 29 30 31 32 33 34 35 36 37 38 39 40 41 42 43 44 45 46 47 48 49 50

000
ASUS43 KMKX 100300
RWRWI

WISCONSIN REGIONAL WEATHER ROUNDUP
NATIONAL WEATHER SERVICE MILWAUKEE/SULLIVAN WI
900 PM CST TUE FEB 09 2016

NOTE: "FAIR" INDICATES FEW OR NO CLOUDS BELOW 12,000 FEET WITH NO
SIGNIFICANT WEATHER AND/OR OBSTRUCTIONS TO VISIBILITY.

WIZ001-002-006>008-014>016-023>028-100400-
NORTHWEST WISCONSIN

CITY           SKY/WX    TMP DP  RH WIND       PRES   REMARKS
SUPERIOR ARPT  PTCLDY     6  -5  61 N8        30.16R WCI  -7
ASHLAND        CLOUDY     8   1  73 N12       30.09S WCI  -7
HAYWARD        MOCLDY     5  -4  66 VRB5      30.06S WCI  -4
SIREN          CLEAR      6  -6  58 N5        30.11F WCI  -3
CUMBERLAND     CLEAR      3  -8  60 NW8       30.06S WCI -10
RICE LAKE      CLEAR      8  -6  54 NW9       30.09S WCI  -6
CHETEK         CLEAR      6  -5  60 NW3       30.07S
LADYSMITH      CLOUDY     9   0  66 N13       30.03F WCI  -6
EAU CLAIRE     NOT AVBL
MENOMONIE      CLEAR     10  -5  48 NW10      30.08S WCI  -3
NEW RICHMOND   CLEAR      7  -4  61 NW9       30.11S WCI  -7
OSCEOLA        CLEAR      9  -3  58 NW9       30.15S WCI  -4
$$

WIZ003>005-009-010-017-018-100400-
NORTH CENTRAL WISCONSIN

CITY           SKY/WX    TMP DP  RH WIND       PRES   REMARKS
MANITOWISH WTR LGT SNOW   7   2  80 N8        29.93S WCI  -5
ARBOR VITAE    CLOUDY    11   6  79 N10       29.92S WCI  -2
WOODRUFF       CLOUDY    11   6  79 N10       29.92S WCI  -2
RHINELANDER    CLOUDY     9   1  70 NW9       29.91R WCI  -4
EAGLE RIVER    LGT SNOW   8   2  76 N10G16    29.90S WCI  -6
LAND O LAKES   LGT SNOW   8   3  79 N13G20    29.90F WCI  -7
PHILLIPS       CLOUDY     7  -1  71 NW10G18   29.97R WCI  -8
TOMAHAWK       CLOUDY     8   1  73 NW9       29.94S WCI  -6
MEDFORD        CLOUDY     8   0  68 NW16      29.96R WCI  -9
MERRILL        CLOUDY     9   1  67 NW12G21   29.95F WCI  -5
$$

WIZ029-030-035-036-043>047-100400-
CENTRAL WISCONSIN

CITY           SKY/WX    TMP DP  RH WIND       PRES   REMARKS
WAUSAU         CLOUDY    11   0  61 NW15      29.94F WCI  -5
MOSINEE        CLOUDY     9   1  72 NW13G18   29.96F WCI  -7
MARSHFIELD     CLOUDY    10  -1  61 N10       29.97S WCI  -4
STEVENS POINT  CLOUDY     9  -2  63 NW10G17   29.97F WCI  -6
WAUPACA        CLOUDY    15   2  56 NW14G20   29.97S WCI   1
WAUTOMA        NOT AVBL
WISC RAPIDS    CLOUDY    10  -2  58 N16G23    30.01R WCI  -7
CAMP DOUGLAS   NOT AVBL
$$

WIZ011>013-019>022-031-037>040-048>050-100400-
NORTHEAST WISCONSIN

CITY           SKY/WX    TMP DP  RH WIND       PRES   REMARKS
ANTIGO         CLOUDY     9   2  75 N13G20    29.89F WCI  -7
SHAWANO        CLOUDY    15   2  54 NW14G21   29.95S WCI   1
OCONTO         CLOUDY    13   6  76 NW9       29.93F WCI   0
STURGEON BAY   CLOUDY    12   3  67 NW16G22   29.90F WCI  -4
GREEN BAY      FLURRIES  13   6  74 NW9       29.94S WCI   1
MANITOWOC      LGT SNOW  14   9  79 NW17G28   29.92R WCI  -3
APPLETON       MOCLDY    12   1  62 NW20      29.92R WCI  -6
CLINTONVILLE   CLOUDY    14   1  57 N9G18     29.95S WCI   2
OSHKOSH        CLOUDY    14   3  61 N15       29.94R WCI  -1
$$

WIZ032>034-041-042-053>061-100400-
SOUTHWEST WISCONSIN

CITY           SKY/WX    TMP DP  RH WIND       PRES   REMARKS
LA CROSSE      CLEAR      7  -4  60 NW10      30.08R WCI  -8
SPARTA         CLEAR      0  -4  82 CALM      30.06R
VIROQUA        CLEAR      5  -3  68 NW7       30.00R WCI  -7
BOSCOBEL       CLEAR     11  -1  58 NW3       30.07R
PRAIRIE DU CHI CLEAR     10  -1  61 W9        30.08R WCI  -4
PLATTEVILLE    CLEAR     10   0  65 NW8       30.01S WCI  -3
$$

WIZ056-057-062-063-064-067-068-100400-
SOUTH CENTRAL WISCONSIN

CITY           SKY/WX    TMP DP  RH WIND       PRES   REMARKS
REEDSBURG      MOCLDY    10   0  64 NW10      30.00F WCI  -4
BARABOO/DELLS  CLOUDY    10  -1  62 NW7       29.99S WCI  -1
LONE ROCK      PTCLDY    11  -2  56 NW8       30.04S WCI  -1
MINERAL POINT  CLEAR     12   0  57 NW10G16   29.98F WCI  -1
MADISON        PTCLDY    11  -1  58 NW9       29.97F WCI  -2
MIDDLETON      CLOUDY    12   1  59 NW10G21   29.98F WCI  -1
WATERTOWN      CLOUDY    13   5  69 NW15G21   29.94S WCI  -2
MONROE         CLOUDY    12   1  62 NW13G21   29.96F WCI  -3
JANESVILLE     CLOUDY    16   3  57 NW17G23   29.96S WCI   0
$$

WIZ051-052-058>065-066-070>072-100400-
SOUTHEAST WISCONSIN

CITY           SKY/WX    TMP DP  RH WIND       PRES   REMARKS
MILWAUKEE      LGT SNOW  16  10  77 NW14      29.92S WCI   2
WAUKESHA       FLURRIES  12   9  85 NW14G21   29.93R WCI  -3
MILWAUKEE/TIMM LGT SNOW  16  10  79 NW10      29.93R WCI   3
RACINE         LGT SNOW  15   8  73 NW12      29.93S WCI   2
BURLINGTON     PTCLDY    12   4  70 NW18G25   29.94R WCI  -5
KENOSHA        LGT SNOW  14   8  77 NW15G23   29.92S WCI  -1
FOND DU LAC    PTCLDY    14   3  61 N16       29.94R WCI  -2
SHEBOYGAN      FLURRIES  15   7  70 NW14G22   29.91R WCI   0
WEST BEND      FLURRIES  16   9  73 NW17      29.91S WCI   0
JUNEAU         CLOUDY    13   4  68 NW17G23   29.94S WCI  -4
$$

LSZ147-162-100400-
LAKE SUPERIOR

STATION/POSITION TIME  TEMP    WIND        PRES    WAVE
                       AIR SEA DIR/SP/G            HT/PER
                 (UTC) (F)     (DEG/KT/KT) (MB)    (FT/S)
DEVILS ISLAND    0200    9      10/ 17/ 22 1021.0R
PORT WING        0240    9     350/ 16/ 25 1020.0S
SAXON HARBOR     0240   11                 1017.9S
$$

LMZ867-665-643>646-100400-
LAKE MICHIGAN

STATION/POSITION TIME  TEMP    WIND        PRES    WAVE
                       AIR SEA DIR/SP/G            HT/PER
                 (UTC) (F)     (DEG/KT/KT) (MB)    (FT/S)
CHAMBERS ISLAND  0200   14     300/ 14/ 22 1012.2
ALGOMA LAKESHORE 0211          310/ 19/ 25   N/A
KEWAUNEE LAKESHO 0200   14     350/ 12/ 22 1012.0R
SHEBOYGAN LAKESH 0200   16     320/ 17/ 20 1014.3R
PORT WASHINGTON  0240   16     330/  7/ 11 1014.2R
MILWAUKEE LAKESH 0210   17     290/  9/ 12   N/A
KENOSHA   LAKESH 0200   16     290/ 13/ 20 1013.2S
$$

TC  - TEMPERATURE IN CELSIUS
VSB - VISIBILITY IN STATUTE MILES
WCI - WIND CHILL INDEX
HX  - HEAT INDEX




USA.gov is the U.S. government's official web portal to all federal, state and local government web resources and services.